Weather History for Maple Lake, MN

Change the Weather History Date:

Tuesday, October 16, 2012

  Actual Average (KSTC) Record (KSTC)
Temperature  
Mean Temperature 58 °F 46 °F  
Max Temperature 69 °F 57 °F 83 °F (1947)
Min Temperature 46 °F 35 °F 18 °F (1952)
Degree Days  
Heating Degree Days 8 19  
Month to date heating degree days 261  
Since 1 July heating degree days 547  
Cooling Degree Days 0 0  
Month to date cooling degree days 0  
Year to date cooling degree days 463  
Growing Degree Days 8 (Base 50)    
Moisture  
Dew Point 45 °F    
Average Humidity 63    
Maximum Humidity 93    
Minimum Humidity 45    
Precipitation  
Precipitation 0.00 in 0.08 in 2.14 in (1968)
Month to date precipitation 1.47  
Year to date precipitation 24.51  
Snow  
Snow 0.00 in 0.00 in 0.30 in (1992)
Month to date snowfall 0.1  
Since 1 July snowfall 0.1  
Since 1 September snowfall 0.1  
Snow Depth -    
Sea Level Pressure  
Sea Level Pressure 29.51 in    
Wind  
Wind Speed 6 mph (SSE)    
Max Wind Speed 12 mph    
Max Gust Speed 18 mph    
Visibility 10 miles    
Events      
T = Trace of Precipitation, MM = Missing Value Source: NWS Daily Summary

Daily Weather History Graph

Daily Weather History Graph

Search for Another Location

Airport:

Trip Planner

Search our weather history database for the weather conditions in past years. The results will help you decide how hot, cold, wet, or windy it might be!

Date:

Astronomy

Oct. 16, 2012 Rise Set
Actual Time 7:33 AM CDT 6:28 PM CDT
Civil Twilight 7:04 AM CDT 6:57 PM CDT
Nautical Twilight 6:29 AM CDT 7:32 PM CDT
Astronomical Twilight 5:55 AM CDT 8:06 PM CDT
Moon 9:03 AM CDT (10/16) 7:06 PM CDT (10/16)
Length of Visible Light 11h 53m
Length of Day
10h 54m
New Moon, 2% of the Moon is Illuminated
Oct 16
New Moon
Oct 21
First Quarter
Oct 29
Full
Nov 6
Last Quarter
Nov 13
New

Hourly Weather History & Observations

Time (CDT) Temp. Windchill Dew Point Humidity Pressure Visibility Wind Dir Wind Speed Gust Speed Precip Events Conditions
12:14 AM 56.3 °F - 40.3 °F 55% 29.70 in 10.0 mi SSE 10.4 mph - N/A   Clear
12:34 AM 56.5 °F - 40.5 °F 55% 29.68 in 10.0 mi SSE 11.5 mph 17.3 mph N/A   Clear
12:54 AM 56.7 °F - 40.6 °F 55% 29.68 in 10.0 mi South 8.1 mph 16.1 mph N/A   Scattered Clouds
1:14 AM 56.7 °F - 40.8 °F 55% 29.68 in 10.0 mi South 8.1 mph 18.4 mph N/A   Mostly Cloudy
1:34 AM 57.2 °F - 41.0 °F 55% 29.68 in 10.0 mi South 9.2 mph - N/A   Overcast
1:54 AM 56.8 °F - 41.2 °F 56% 29.69 in 10.0 mi South 6.9 mph - N/A   Overcast
2:14 AM 57.0 °F - 41.4 °F 56% 29.67 in 10.0 mi South 8.1 mph - N/A   Overcast
2:34 AM 56.7 °F - 41.4 °F 57% 29.66 in 10.0 mi SSE 8.1 mph - N/A   Mostly Cloudy
2:54 AM 56.7 °F - 41.5 °F 57% 29.66 in 10.0 mi South 6.9 mph - N/A   Mostly Cloudy
3:14 AM 56.7 °F - 41.5 °F 57% 29.65 in 10.0 mi South 5.8 mph - N/A   Mostly Cloudy
3:34 AM 56.3 °F - 41.9 °F 59% 29.64 in 10.0 mi South 4.6 mph - N/A   Scattered Clouds
3:55 AM 56.3 °F - 42.1 °F 59% 29.63 in 10.0 mi South 3.5 mph - N/A   Clear
4:14 AM 55.0 °F - 41.9 °F 61% 29.65 in 10.0 mi West 4.6 mph - N/A   Clear
4:34 AM 54.7 °F - 41.9 °F 62% 29.64 in 10.0 mi Calm Calm - N/A   Clear
4:55 AM 53.6 °F - 41.9 °F 65% 29.63 in 10.0 mi Calm Calm - N/A   Clear
5:34 AM 52.9 °F - 42.1 °F 67% 29.60 in 10.0 mi SSE 5.8 mph - N/A   Clear
5:54 AM 52.7 °F - 42.1 °F 67% 29.59 in 10.0 mi SSE 5.8 mph - N/A   Clear
6:14 AM 51.8 °F - 41.9 °F 69% 29.58 in 10.0 mi SSE 5.8 mph - N/A   Clear
6:54 AM 51.6 °F - 42.1 °F 70% 29.58 in 10.0 mi SSE 3.5 mph - N/A   Clear
7:14 AM 51.8 °F - 42.4 °F 70% 29.58 in 10.0 mi SSE 4.6 mph - N/A   Scattered Clouds
7:34 AM 52.2 °F - 42.8 °F 70% 29.58 in 10.0 mi SE 4.6 mph - N/A   Scattered Clouds
7:54 AM 52.3 °F - 43.2 °F 71% 29.57 in 10.0 mi SSE 5.8 mph - N/A   Scattered Clouds
8:14 AM 52.7 °F - 43.2 °F 70% 29.57 in 10.0 mi SE 5.8 mph - N/A   Mostly Cloudy
8:34 AM 52.7 °F - 43.7 °F 71% 29.57 in 10.0 mi SSE 4.6 mph - N/A   Scattered Clouds
8:54 AM 51.8 °F - 43.7 °F 74% 29.55 in 10.0 mi SSE 3.5 mph - N/A   Clear
9:14 AM 54.0 °F - 44.2 °F 70% 29.55 in 10.0 mi SSE 4.6 mph - N/A   Clear
9:34 AM 55.8 °F - 44.6 °F 66% 29.57 in 10.0 mi South 6.9 mph - N/A   Clear
9:54 AM 57.4 °F - 44.8 °F 63% 29.56 in 10.0 mi South 6.9 mph - N/A   Clear
10:14 AM 58.3 °F - 45.1 °F 62% 29.56 in 10.0 mi South 5.8 mph - N/A   Clear
10:34 AM 60.1 °F - 45.5 °F 59% 29.55 in 10.0 mi South 5.8 mph - N/A   Scattered Clouds
10:54 AM 62.2 °F - 46.0 °F 55% 29.55 in 10.0 mi SSE 5.8 mph - N/A   Mostly Cloudy
11:14 AM 63.3 °F - 46.2 °F 54% 29.54 in 10.0 mi SSE 4.6 mph - N/A   Scattered Clouds
11:34 AM 61.0 °F - 46.0 °F 58% 29.53 in 10.0 mi SSE 5.8 mph - N/A   Scattered Clouds
11:54 AM 61.0 °F - 46.0 °F 58% 29.52 in 10.0 mi SE 4.6 mph - N/A   Scattered Clouds
12:14 PM 64.0 °F - 46.6 °F 53% 29.50 in 10.0 mi South 5.8 mph - N/A   Clear
12:34 PM 65.3 °F - 46.6 °F 51% 29.50 in 10.0 mi SSE 3.5 mph - N/A   Clear
12:54 PM 66.2 °F - 46.9 °F 50% 29.49 in 10.0 mi ESE 4.6 mph - N/A   Clear
1:14 PM 66.4 °F - 46.8 °F 49% 29.48 in 10.0 mi SE 5.8 mph - N/A   Clear
1:34 PM 66.2 °F - 46.6 °F 49% 29.47 in 10.0 mi SE 4.6 mph - N/A   Clear
1:54 PM 67.3 °F - 46.9 °F 48% 29.46 in 10.0 mi Calm Calm - N/A   Clear
2:14 PM 67.8 °F - 46.9 °F 47% 29.46 in 10.0 mi Calm Calm - N/A   Clear
2:34 PM 67.8 °F - 46.6 °F 46% 29.45 in 10.0 mi Calm Calm - N/A   Clear
2:54 PM 68.7 °F - 46.9 °F 46% 29.44 in 10.0 mi ENE 3.5 mph - N/A   Clear
3:14 PM 68.5 °F - 46.9 °F 46% 29.45 in 10.0 mi NE 4.6 mph - N/A   Clear
3:34 PM 69.1 °F - 47.1 °F 45% 29.44 in 10.0 mi Calm Calm - N/A   Clear
3:54 PM 68.9 °F - 46.6 °F 45% 29.43 in 10.0 mi ESE 3.5 mph - N/A   Clear
4:14 PM 69.3 °F - 47.3 °F 45% 29.43 in 10.0 mi Calm Calm - N/A   Clear
4:34 PM 69.3 °F - 47.3 °F 45% 29.42 in 10.0 mi East 4.6 mph - N/A   Clear
4:55 PM 68.2 °F - 48.0 °F 48% 29.41 in 10.0 mi SSE 6.9 mph - N/A   Clear
5:14 PM 67.3 °F - 48.2 °F 50% 29.41 in 10.0 mi SE 6.9 mph - N/A   Clear
5:34 PM 65.7 °F - 48.2 °F 53% 29.41 in 10.0 mi SSE 5.8 mph - N/A   Clear
5:54 PM 64.2 °F - 48.2 °F 56% 29.42 in 10.0 mi SSE 3.5 mph - N/A   Clear
6:14 PM 63.0 °F - 48.4 °F 59% 29.41 in 10.0 mi SE 4.6 mph - N/A   Clear
6:34 PM 61.2 °F - 48.6 °F 63% 29.41 in 10.0 mi SSE 4.6 mph - N/A   Clear
6:54 PM 60.1 °F - 48.4 °F 65% 29.41 in 10.0 mi SSE 5.8 mph - N/A   Clear
7:14 PM 59.0 °F - 49.5 °F 71% 29.41 in 10.0 mi SE 4.6 mph - N/A   Clear
7:34 PM 58.6 °F - 48.4 °F 69% 29.41 in 10.0 mi SE 3.5 mph - N/A   Clear
7:54 PM 57.0 °F - 47.8 °F 71% 29.41 in 10.0 mi SSE 3.5 mph - N/A   Clear
8:14 PM 56.3 °F - 47.8 °F 73% 29.41 in 10.0 mi Calm Calm - N/A   Clear
8:34 PM 54.1 °F - 47.1 °F 77% 29.41 in 10.0 mi Calm Calm - N/A   Clear
8:54 PM 53.4 °F - 47.3 °F 80% 29.41 in 10.0 mi Calm Calm - N/A   Clear
9:14 PM 50.7 °F - 46.6 °F 86% 29.41 in 10.0 mi Calm Calm - N/A   Clear
9:34 PM 49.1 °F - 46.2 °F 90% 29.41 in 10.0 mi Calm Calm - N/A   Clear
9:54 PM 48.9 °F - 45.3 °F 87% 29.40 in 10.0 mi Calm Calm - N/A   Clear
10:14 PM 46.4 °F 45.2 °F 44.4 °F 93% 29.39 in 10.0 mi East 3.5 mph - N/A   Clear
10:34 PM 50.7 °F - 48.2 °F 91% 29.38 in 10.0 mi ESE 3.5 mph - N/A   Clear
10:54 PM 52.5 °F - 48.2 °F 85% 29.38 in 10.0 mi ESE 3.5 mph - N/A   Clear
11:14 PM 51.8 °F - 48.0 °F 87% 29.38 in 10.0 mi ESE 3.5 mph - N/A   Clear
11:34 PM 51.3 °F - 47.7 °F 87% 29.37 in 10.0 mi ESE 3.5 mph - N/A   Clear
11:54 PM 50.2 °F - 47.1 °F 89% 29.37 in 10.0 mi ESE 3.5 mph - N/A   Clear